Regional Weather Roundup
Issued by NWS

Home | Current Version | Previous Version | Graphics & Text | Print | Product List | Glossary On
Versions: 1 2 3 4 5 6 7 8 9 10 11 12 13 14 15 16 17 18 19 20 21 22 23 24 25 26 27 28 29 30 31 32 33 34 35 36 37 38 39 40 41 42 43 44 45 46 47 48 49 50
368
ASUS45 KTFX 270810
RWRMT
MONTANA REGIONAL WEATHER ROUNDUP
NATIONAL WEATHER SERVICE GREAT FALLS MT
200 AM MDT SUN MAY 27 2018

NOTE: "FAIR" INDICATES FEW OR NO CLOUDS BELOW 12000 FEET WITH NO
SIGNIFICANT WEATHER AND/OR OBSTRUCTIONS TO VISIBILITY.

MTZ001>007-043-270900-
WEST OF THE DIVIDE

CITY           SKY/WX    TMP DP  RH WIND       PRES   REMARKS
KALISPELL      FAIR      51  50  96 SW3       30.00R
MISSOULA       CLOUDY    54  49  83 S6        30.06R
BUTTE          FAIR      47  41  80 CALM      30.08F
MULLAN PASS    FAIR      42  40  92 NW7       30.13R
ANACONDA         N/A     48  43  81 SW5       30.06F
DEER LODGE       N/A     45  45 100 CALM      30.08F
HAMILTON         N/A     59  48  67 MISG      30.05S
PLAINS           N/A     49  45  86 CALM      30.05R
RONAN            N/A     55  52  88 SE6       30.03F
$$

MTZ008-052>055-270900-
SOUTHWEST MONTANA

CITY           SKY/WX    TMP DP  RH WIND       PRES   REMARKS
BOZEMAN        FAIR      52  48  86 S3        29.97F
DILLON         FAIR      51  42  71 S6        30.04S
ENNIS          CLOUDY    54  45  71 SE7       30.05R
W YELLOWSTONE  MOCLDY    52  43  71 VRB3      30.05S
TWIN BRIDGES     N/A     52  41  66 SW2       30.00F
$$

MTZ009-010-012-014-046-048-049-054-270900-
EAST SLOPES AND CENTRAL MONTANA

CITY           SKY/WX    TMP DP  RH WIND       PRES   REMARKS
CUT BANK       FAIR      53  46  77 W10       29.95S
GREAT FALLS    FAIR      55  49  80 W6        29.95F
MALMSTROM AFB  FAIR      62  47  57 W5        29.94F
HELENA         FAIR      57  48  72 W5        29.97S
AUGUSTA        FAIR      55  45  67 NW12      29.99F
BOWMANS CRNR   FAIR      55  46  72 NW14      29.97S
CHOTEAU          N/A     57  45  62 W6        29.98F
FAIRFIELD      FAIR      57  51  80 NW7       29.96F
POWER          FAIR      53  48  82 NW8       29.94F
RAYNESFORD     MOCLDY    52  49  88 S5        29.97R
ULM            FAIR      51  50  97 S3        29.95F
WHITE SULPHUR    N/A     50  46  87 SE7       29.98R
$$

MTZ011-013-016-021-045-047-050-051-270900-
NORTH CENTRAL MONTANA

CITY           SKY/WX    TMP DP  RH WIND       PRES   REMARKS
HAVRE          FAIR      53  48  83 CALM      29.88S
LEWISTOWN      FAIR      55  49  80 SW7       29.92R
N BAR RANCH    FAIR      55  46  71 NW15      29.92R
CHINOOK          N/A     61  48  63 CALM      29.89
DENTON         MOCLDY    60  52  74 NW7       29.88R
GEYSER         MOCLDY    56  49  80 SW9       29.94S
GRASS RANGE    MOCLDY    59  48  67 W16       29.86R
JUDITH GAP     FAIR      53  47  79 N10       29.92F
ROY            MOCLDY    59  49  70 N16       29.83F
STANFORD       MOCLDY    58  49  72 W13       29.94F
WINIFRED       MOCLDY    58  50  75 W3        29.90S
$$

MTZ017>020-022>027-061-062-270900-
NORTHEAST MONTANA

CITY           SKY/WX    TMP DP  RH WIND       PRES   REMARKS
GLASGOW        FAIR      65  59  81 N7        29.75F
GLENDIVE       MOCLDY    60  58  92 NE15      29.81R
JORDAN           N/A     62  58  86 SW3       29.79F
MALTA          CLEAR     66  55  68 N16       29.79F
SIDNEY         LGT RAIN  62  58  86 NE28G39   29.69F
WOLF POINT     MOCLDY    65  59  81 E22       29.68F
PLENTYWOOD       N/A     66  55  68 MISG      29.84R
POPLAR           N/A     64  57  77 NW5       29.84R
SCOBEY           N/A     62  47  58 CALM      29.82S
$$

MTZ028>42-056>058-270900-
SOUTHCENTRAL AND SOUTHEAST MONTANA

CITY           SKY/WX    TMP DP  RH WIND       PRES   REMARKS
BAKER          MOCLDY    62  56  80 N28G36    29.80R
BILLINGS       FAIR      60  49  66 SW13      29.89R
LIVINGSTON     FAIR      50  47  89 W5        29.98S
MILES CITY     FAIR      67  56  67 N17       29.79R
BIG TIMBER     CLEAR     54  48  82 W14       29.95F
EKALAKA          N/A     65  58  78 N18       29.79R
FORSYTH          N/A     68  55  64 CALM      29.84
HARLOWTON      FAIR      53  50  90 W10       29.93S
LAUREL           N/A     55  50  82 SW12      29.92R
$$

REGIONAL REPORTS...DAKOTAS

CITY           SKY/WX    TMP DP  RH WIND       PRES   REMARKS
WILLISTON      RAIN      63  59  87 N12G22    29.84S
MINOT          FAIR      71  52  50 SE7       29.68F
DICKINSON      FAIR      71  53  52 N30G39    29.77R
BEACH          CLOUDY    63  57  82 NE21      29.84F
CROSBY         LGT RAIN  63  63 100 W10       29.85R
TIOGA          RAIN      63  63 100 NW18G26   29.85R
WATFORD CITY   RAIN      63  63 100 N8G16     29.86R
BISMARCK       FAIR      71  56  58 SE7       29.67F
GRAND FORKS    FAIR      60  57  89 E5        29.73F
FARGO          FAIR      63  52  67 E3        29.73S
BUFFALO SD       N/A     63  58  83 W9        29.65
RAPID CITY     FAIR      64  57  78 S8        29.69F
$$

REGIONAL REPORTS...WYOMING/IDAHO/WASHINGTON

CITY           SKY/WX    TMP DP  RH WIND       PRES   REMARKS
GILLETTE       MOCLDY    66  58  75 NW20G36   29.83R
SHERIDAN       LGT RAIN  61  55  81 NW17      29.92F
BUFFALO WY     LGT RAIN  59  52  77 N28G48    29.89F
CODY           FAIR      56  47  71 NE9       29.96
YELLOWSTONE LA   N/A     47  36  65 VRB3      30.10F
IDAHO FALLS    FAIR      53  50  89 CALM      29.98R
SALMON         FAIR      49  45  86 SE3       30.03S
BOISE          FAIR      54  51  90 CALM      29.93S
SPOKANE        FAIR      58  44  60 S6        30.04S
$$

REGIONAL REPORTS...ALBERTA

CITY           SKY/WX    TMP DP  RH WIND       PRES   REMARKS
CALGARY        PTCLDY    55  34  44 NW12      29.93R
CARDSTON         N/A     52  43  71 SW6         N/A
EDMONTON       CLEAR     46  36  66 S2        29.93R
FORT MCMURRAY  MOCLDY    52  37  58 SW7       29.76S
HIGH LEVEL     MOCLDY    48  43  81 S3        29.69S
LETHBRIDGE     CLEAR     57  45  62 SW14G20   29.88R
LLOYDMINSTER   LGT RAIN  55  37  50 N6        29.89R
MEDICINE HAT   CLEAR     54  48  82 S3        29.86S
MILK RIVER       N/A     50  46  87 W6          N/A
ONEFOUR          N/A     52  43  71 N5          N/A
PEACE RIVER    PTCLDY    48  30  49 SW14G22   29.86R
PINCHER CREEK    N/A     57  45  62 W16       29.94R
WATERTON GATE    N/A     57  45  62 SW17G25     N/A
$$

REGIONAL REPORTS...SASKATCHEWAN

CITY           SKY/WX    TMP DP  RH WIND       PRES   REMARKS
CORONACH         N/A     64  55  72 S7          N/A
CYPRESS HILLS    N/A     54  46  76 NE3         N/A
ESTEVAN        TSTM      63  57  82 W12G21    29.84R
MOOSE JAW        N/A     59  55  88 NW14        N/A
PRINCE ALBERT  CLEAR     52  52 100 NW7       29.81R
REGINA         CLOUDY    61  57  88 S13       29.80R
ROCKGLEN         N/A     64  55  72 N9          N/A
SASKATOON      CLEAR     50  50 100 NW8       29.83S FOG
SWIFT CURRENT  CLEAR     55  54  94 NW2       29.89R
VAL MARIE        N/A     63  54  72 N3          N/A
$$




USA.gov is the U.S. government's official web portal to all federal, state and local government web resources and services.